Flag for South Africa Weather past 2 weeks in Bloemfontein, South Africa

Now
41 °F

Quite cool.


Feels Like: 41 °F
Forecast: 36 / 70 °F
Wind: No wind

Location: Bloemfontein Airport

Current Time: May 6, 2015 at 3:25:58 AM

Latest Report: May 6, 2015 at 2:00 AM


Visibility: N/A

Pressure: 30.15 "Hg

Humidity: 61%

Dew point: 28 °F

Location of BloemfonteinLocation

Historic Weather in Bloemfontein — Graph

°F

Bloemfontein temperature yesterday

Maximum temperature yesterday: 81 °F (at 2:00 PM)
Minimum temperature yesterday: 36 °F (at 7:00 AM)
Average temperature yesterday: 58 °F

Past Weeks' High & Low Weather Summary

 TemperatureHumidityPressure
High81 °F (Apr 29, 1:00 PM)88% (Apr 22, 7:00 AM)30.36 "Hg (Apr 22, 7:00 AM)
Low34 °F (May 1, 6:00 AM)5% (May 3, 2:00 PM)29.95 "Hg (Apr 29, 4:00 PM)
Average59 °F47%30.20 "Hg
* Reported Apr 21 2:00 AM — May 6 2:00 AM, Bloemfontein, Weather by CustomWeather, © 2015

Note: Actual official high and low records may vary slightly from our data, if they occured in-between our weather recording intervals... More about our weather records

Advertising

Bloemfontein weather history for previous 24 hours

 ConditionsComfort  
Time TempWeatherWind HumidityBarometerVisibility
2:00 AM
Wed, May 6
41 °FQuite cool.No wind61%30.15 "HgN/A
1:00 AM45 °FQuite cool.2 mph57%30.15 "HgN/A
12:00 AM46 °FCool.3 mph53%30.12 "Hg6 mi
11:00 PM
Tue, May 5
45 °FQuite cool.1 mph57%30.15 "HgN/A
10:00 PM50 °FCool.3 mph50%30.15 "HgN/A
9:00 PM54 °FCool.2 mph41%30.15 "HgN/A
8:00 PM57 °FClear.2 mph31%30.15 "Hg10 mi
7:00 PM68 °FClear.3 mph24%30.15 "Hg10 mi
6:00 PM73 °FClear.8 mph20%30.12 "Hg10 mi
5:00 PM79 °FClear.13 mph12%30.15 "Hg10 mi
4:00 PM81 °FPassing clouds.17 mph16%30.12 "HgN/A
3:00 PM81 °FPassing clouds.13 mph16%30.12 "HgN/A
2:00 PM81 °FSunny.13 mph12%30.18 "Hg10 mi
1:00 PM79 °FSunny.15 mph18%30.18 "Hg10 mi
12:00 PM77 °FPassing clouds.12 mph18%30.21 "HgN/A
11:00 AM72 °FPassing clouds.5 mph23%30.24 "HgN/A
10:00 AM64 °FPassing clouds.3 mph28%30.24 "HgN/A
9:00 AM55 °FSunny.2 mph38%30.24 "Hg10 mi
8:00 AM46 °FSunny.1 mph53%30.24 "Hg10 mi
7:00 AM36 °FSunny.1 mph70%30.24 "Hg10 mi
6:00 AM37 °FSunny.3 mph70%30.24 "Hg10 mi
5:00 AM37 °FClear.No wind75%30.24 "Hg10 mi
4:00 AM39 °FChilly.2 mph65%30.24 "HgN/A
3:00 AM41 °FQuite cool.No wind61%30.24 "HgN/A
Weather by CustomWeather, © 2015

See weather overviewHow to use our weather pages